Location: Sobotiste
(48.7170°N, 17.4000°E)
Time: 22:20:35
(UTC+02:00)

ITUPSAT 1 - Pass Details

Date: 20 March 2026
Orbit: 686 x 698 km, 98.4° (Epoch: 21 April)

Event Time Altitude Azimuth Distance (km) Brightness Sun altitude
Rises 00:32:07 0° 5° (N) 3,072 ? -41.0°
Reaches altitude 10° 00:34:39 10° 353° (N) 2,150 ? -40.9°
Enters shadow 00:34:56 11° 351° (N) 2,055 ? -40.9°
